Temperature
21 22 22 23 23 23 24 24 24 24 24 24 25 25 26 25 24 25 25 24 24 24 23 22 21 21 20 20 20 19 19 19 18 17 17 16 16 15 15 14 14 14 13 13
22 22 23 23 23 23 24 24 24 24 24 25 25 25 26 25 24 24 24 25 24 24 23 22 21 21 21 20 20 20 19 19 18 18 17 16 16 15 15 14 14 14 13 13
23 23 22 23 23 23 24 24 24 24 24 25 25 26 26 26 25 24 23 24 24 23 23 23 21 21 21 21 20 20 19 19 18 18 17 17 16 15 15 14 14 14 13 13
22 22 22 23 23 24 23 24 24 24 25 25 25 25 26 26 26 25 24 24 23 22 22 22 21 21 21 21 20 20 19 19 19 18 17 17 16 16 15 14 14 14 13 13
22 23 23 23 23 24 24 23 24 24 25 26 26 26 26 26 26 25 25 24 23 22 22 21 21 21 21 20 20 20 19 19 19 18 17 17 16 15 15 15 14 14 14 13
23 23 24 24 23 23 23 24 24 25 26 25 25 26 25 25 25 25 25 24 23 22 21 21 21 21 21 21 21 20 20 19 19 18 18 17 16 16 15 15 14 14 14 13
23 23 23 23 23 23 24 25 25 25 25 24 24 25 24 24 24 24 23 23 22 21 21 21 21 21 21 21 21 20 20 19 19 18 17 17 16 16 15 15 15 14 14 14
23 23 24 24 25 25 25 25 25 24 24 24 25 25 24 24 23 22 22 22 21 21 21 20 20 21 21 21 21 20 20 19 19 18 18 17 16 16 15 15 15 14 14 14
25 24 24 24 24 25 25 25 25 25 25 25 25 25 24 24 24 23 22 22 21 20 20 19 20 20 20 20 20 20 20 19 19 18 18 17 17 16 16 15 15 15 14 14
25 24 24 24 24 23 25 25 25 25 24 24 24 24 24 23 23 23 22 21 20 19 19 19 19 19 19 20 20 20 20 19 19 18 18 17 17 16 16 15 15 15 15 14
25 25 24 24 25 25 24 24 25 25 25 24 24 24 23 22 22 22 21 20 19 19 18 18 18 19 19 19 19 19 19 19 18 18 17 17 17 16 16 16 15 15 15 14
24 26 25 24 24 24 25 25 25 25 24 24 24 23 22 22 21 21 20 19 18 18 18 18 18 18 18 18 18 18 18 18 18 18 17 17 17 16 16 16 15 15 15 14
24 25 24 24 24 24 24 24 24 25 25 24 24 23 22 22 21 20 19 19 18 18 17 17 17 18 18 18 18 18 18 18 18 18 17 17 16 16 16 16 15 15 15 15
23 26 25 24 25 25 24 23 23 25 25 24 24 23 22 21 20 19 18 18 18 18 17 17 17 17 17 17 17 17 18 18 17 17 17 17 16 16 16 16 15 15 15 15
24 25 25 24 24 24 24 24 23 24 25 25 24 23 22 21 20 19 18 18 17 17 17 16 16 16 16 17 17 17 17 17 17 17 17 16 16 16 16 16 16 15 15 15
24 25 24 23 23 23 23 23 23 23 23 23 23 22 21 20 19 18 18 17 17 16 16 16 16 16 16 16 16 16 16 16 16 16 16 16 16 16 16 16 16 15 15 15
24 24 24 24 23 23 23 23 23 22 22 23 22 22 20 19 18 18 17 16 16 15 15 15 15 15 15 16 16 16 16 16 15 15 15 15 15 15 15 15 15 15 15 15
23 24 24 23 23 22 23 21 21 21 21 21 21 20 19 18 17 16 16 16 15 14 14 14 14 15 15 15 15 15 15 15 15 15 14 14 15 15 15 15 15 15 15 14
21 22 23 23 23 23 21 20 20 21 20 20 20 19 18 17 17 17 15 14 14 14 14 14 14 14 14 14 14 14 14 14 14 14 14 14 14 14 14 14 14 14 14 14
19 21 22 22 22 22 23 21 19 21 20 19 19 19 18 18 20 19 15 14 14 13 13 13 13 13 14 14 13 14 14 14 14 14 13 13 13 13 14 14 14 14 14 14
20 20 21 22 22 23 21 19 19 21 22 19 18 18 18 18 19 16 14 13 13 13 13 13 13 13 13 13 13 13 13 13 13 13 13 13 13 13 13 13 13 13 13 13
21 21 21 21 21 22 18 19 20 21 19 18 18 17 17 16 15 14 14 13 13 13 12 12 12 12 12 12 12 12 12 12 12 12 12 12 12 12 13 13 13 13 13 13
20 21 21 21 21 18 17 18 18 17 18 17 17 16 15 15 14 14 13 13 12 12 12 12 11 11 11 11 11 11 11 11 11 11 11 11 11 12 12 12 12 12 12 12
19 17 18 19 18 17 16 16 15 16 16 16 15 15 14 14 14 13 13 12 12 11 11 11 11 11 11 11 10 10 10 10 10 10 10 11 11 11 11 11 11 11 11 11
18 17 18 19 18 16 15 15 15 15 15 14 14 14 13 13 13 13 12 12 11 11 11 11 10 10 10 10 10 10 10 9 10 10 10 10 10 10 10 10 10 10 10 10
17 17 18 19 18 18 16 15 14 14 14 14 13 13 13 12 12 12 12 11 11 10 10 10 10 10 9 9 9 9 9 9 9 9 9 9 9 9 9 9 9 10 10 10
Wind_Speed
7 7 8 8 5 3 5 5 6 4 2 1 0 1 3 3 3 2 3 3 3 4 5 5 6 8 8 9 9 9 8 8 6 4 3 2 2 2 1 1 2 2 3 4
9 8 7 7 5 4 5 6 6 5 2 1 2 4 5 5 3 2 1 1 1 2 3 3 5 7 9 10 10 9 9 8 7 4 3 2 1 2 1 2 2 2 3 4
8 7 7 7 7 6 5 4 4 3 3 2 3 7 7 7 6 5 3 2 2 1 2 2 3 6 8 9 10 9 9 9 8 6 4 3 2 2 2 2 2 2 3 3
5 6 8 8 6 4 5 2 2 2 3 3 1 7 8 7 8 8 6 5 4 3 2 2 1 3 6 7 8 9 9 9 8 7 6 5 3 2 2 2 2 2 2 3
6 8 8 7 5 3 4 2 2 2 4 5 3 5 7 7 8 8 8 7 6 5 4 3 1 1 2 4 6 7 8 8 8 8 6 6 4 3 2 2 2 3 2 2
6 4 3 3 4 3 5 5 4 4 5 5 3 3 6 5 6 7 8 8 8 7 6 5 3 2 2 3 4 6 7 8 8 8 8 7 5 4 4 4 3 3 2 2
7 6 4 3 5 5 5 5 5 6 5 5 2 2 6 7 6 6 7 8 8 8 7 6 5 3 2 3 4 5 7 7 8 8 8 8 7 6 6 5 4 4 3 3
10 8 5 4 3 4 4 3 2 4 5 6 3 5 6 6 6 6 7 8 9 10 9 8 6 4 2 2 3 4 6 7 7 8 8 8 8 6 5 5 5 5 4 3
7 7 5 2 1 2 4 2 2 2 4 5 5 6 6 6 7 8 9 10 11 11 10 9 7 5 3 1 2 3 4 5 6 8 8 8 8 7 7 7 6 5 5 4
3 8 5 5 4 3 2 3 3 3 4 4 5 5 3 4 6 8 10 11 10 10 11 10 9 7 5 3 1 1 3 4 5 6 7 6 8 8 7 7 7 6 6 5
3 6 7 6 4 4 4 3 1 1 1 2 5 4 4 3 4 6 8 9 9 10 10 10 9 8 7 5 3 2 1 3 4 5 6 7 7 7 8 8 8 7 7 7
1 3 6 5 2 1 2 2 4 3 2 1 2 3 5 4 4 5 7 8 9 10 10 10 10 9 9 8 6 4 3 2 3 4 5 6 6 7 8 8 9 9 8 8
3 4 6 6 5 4 3 2 2 2 3 4 4 4 5 5 5 6 6 7 8 9 10 10 10 10 9 8 7 6 5 4 3 3 4 5 6 7 8 9 9 9 9 9
2 4 4 4 2 4 5 5 5 5 5 5 5 4 4 3 4 5 6 7 8 9 10 11 11 10 10 9 8 8 7 5 4 3 3 5 6 6 7 8 8 9 9 10
3 4 3 1 2 2 4 6 7 8 6 7 4 4 4 4 3 4 5 6 8 9 11 11 11 11 10 10 9 8 8 6 5 4 4 4 6 6 7 7 8 9 9 10
2 4 4 4 3 4 5 6 7 7 5 5 4 4 4 5 5 5 5 6 8 9 10 10 11 11 11 11 10 9 8 7 6 5 5 5 6 6 6 7 8 8 9 10
3 6 6 6 4 5 9 8 9 7 6 7 7 4 8 8 6 5 5 6 7 7 8 9 10 10 10 10 10 9 9 8 7 7 7 7 7 7 7 7 8 8 9 10
4 7 5 5 5 9 1 3 4 5 4 4 3 7 9 8 7 6 5 5 5 6 7 8 9 9 10 10 10 9 9 9 8 8 8 8 8 8 8 8 8 9 10 10
5 6 6 6 8 6 3 5 6 6 5 5 6 8 8 8 8 5 4 4 4 5 5 6 7 8 9 10 10 10 9 9 9 10 10 10 10 9 9 9 10 10 10 10
5 6 7 7 8 7 3 7 5 5 6 7 8 9 9 8 6 4 3 2 3 4 4 5 6 7 9 9 10 10 10 11 11 11 12 11 11 10 11 11 11 10 10 11
7 7 11 11 9 6 5 8 8 7 3 9 9 9 9 7 1 4 4 2 1 2 4 5 6 7 8 9 10 10 11 12 12 12 12 12 12 12 12 11 11 10 10 11
9 9 10 9 10 6 9 9 8 2 6 9 9 8 7 5 4 4 3 2 0 2 3 4 5 6 7 9 10 10 11 12 12 12 12 12 12 12 11 11 11 11 11 11
7 5 4 6 2 5 8 6 3 4 6 7 7 7 6 6 5 4 3 2 1 2 2 4 5 6 7 8 10 11 11 12 13 13 13 13 13 12 12 12 12 11 10 10
5 3 4 4 5 5 6 5 5 5 6 6 6 7 7 6 5 5 3 2 2 2 3 4 6 7 8 9 10 11 12 12 13 14 14 13 13 13 13 11 11 10 10 10
5 7 6 6 5 6 7 7 7 7 6 6 6 6 6 6 5 5 4 3 3 2 3 4 6 7 9 10 10 11 12 13 14 14 13 14 13 13 13 13 11 12 12 11
8 9 8 7 8 7 7 9 9 8 8 7 7 6 6 5 5 5 4 4 3 4 4 5 6 8 9 10 11 11 11 12 13 13 13 12 12 12 12 13 14 13 13 15
Wind_Direction
166 175 172 167 156 115 140 143 134 111 83 231 178 74 83 92 116 134 162 191 209 221 221 219 218 212 208 206 203 195 193 184 178 175 192 211 225 241 263 302 336 322 325 332
159 170 160 148 148 149 147 141 131 114 77 75 88 90 83 75 74 77 87 141 213 237 228 207 209 205 206 204 201 197 194 187 187 184 187 201 235 257 277 272 274 301 319 327
154 141 154 160 157 151 134 133 117 109 126 127 118 108 94 86 85 78 64 43 25 311 282 246 212 209 205 205 201 198 194 188 189 181 172 171 192 232 234 250 266 289 306 316
128 142 163 162 157 161 128 95 128 150 168 116 94 114 92 88 86 70 60 51 34 6 333 318 252 213 207 206 202 200 194 192 187 183 193 202 230 264 282 284 277 269 278 301
131 154 162 158 153 172 108 114 136 154 145 136 103 126 104 92 77 59 51 46 37 26 15 2 348 258 205 195 195 197 192 192 189 194 198 215 237 259 268 265 261 272 276 284
117 145 167 142 128 158 146 154 145 169 177 138 76 128 106 74 45 38 38 38 36 33 33 33 39 64 112 156 180 189 192 193 193 199 206 220 234 243 252 256 264 266 269 274
137 143 147 162 148 155 199 198 171 167 164 125 88 113 92 57 34 25 23 30 34 36 36 39 43 58 91 145 173 186 192 196 199 206 215 222 232 241 246 256 256 267 276 274
151 149 166 188 196 168 187 236 209 164 153 136 148 123 92 58 46 43 44 42 41 40 35 34 32 39 66 134 172 189 198 204 204 212 220 225 228 236 247 247 261 264 275 281
155 136 131 150 170 200 170 166 2 116 132 151 133 124 113 78 64 54 49 45 39 34 32 31 29 30 39 82 171 197 205 212 213 220 224 228 230 232 241 245 250 258 263 268
151 137 136 146 153 59 22 135 188 195 171 163 151 153 134 70 45 42 41 38 34 31 33 33 32 30 30 32 35 205 226 230 226 228 229 232 235 234 240 246 247 252 257 258
186 158 152 173 198 168 157 164 162 140 240 206 170 133 58 56 44 40 39 36 32 31 31 31 32 33 34 38 39 27 283 258 247 241 238 234 235 239 241 241 246 250 253 248
194 193 162 154 103 348 235 205 214 217 173 230 213 122 87 84 65 52 47 45 41 37 36 37 36 36 36 33 29 22 358 316 280 262 253 248 246 243 245 244 245 247 249 250
177 202 172 164 169 173 173 164 209 217 205 217 227 142 117 101 83 68 60 52 49 45 42 40 37 35 31 28 24 19 7 348 322 285 266 259 255 253 252 253 251 250 250 250
244 218 236 225 165 168 174 171 191 212 228 228 233 171 152 124 95 76 68 59 54 48 43 38 33 32 27 25 21 18 11 1 347 321 284 273 271 265 261 259 257 254 254 253
240 223 203 130 113 179 200 196 202 225 247 252 230 193 171 152 127 98 81 68 58 46 39 33 29 25 21 21 18 16 8 1 353 342 319 301 291 281 272 265 259 257 256 256
231 214 197 195 181 211 227 223 217 223 234 227 197 185 139 137 130 113 87 69 56 44 34 28 25 22 17 14 10 8 4 359 352 343 332 321 309 299 287 276 266 261 258 257
197 214 228 232 190 236 241 228 215 209 210 207 214 185 148 148 138 115 87 69 54 40 31 24 21 17 11 8 3 0 357 355 352 347 338 330 317 305 294 288 278 267 261 257
213 213 226 237 216 239 158 91 185 184 189 197 162 144 157 153 138 120 90 69 53 37 26 20 14 12 8 6 3 358 356 355 353 348 339 333 324 311 302 293 282 274 269 263
229 208 215 228 236 246 201 170 172 183 184 178 164 150 148 146 153 143 97 63 48 32 20 13 6 3 3 3 359 355 356 355 352 346 337 331 324 316 307 296 287 280 273 269
188 215 221 219 232 240 185 153 165 188 194 173 172 161 160 168 198 168 129 89 51 31 19 9 2 0 1 359 354 352 353 352 348 340 332 328 323 315 307 299 293 286 275 270
178 196 217 224 234 241 130 146 166 202 190 160 174 172 175 191 205 119 137 125 66 31 13 2 360 0 356 351 349 349 350 348 342 335 330 325 322 316 309 304 297 291 283 277
194 193 205 213 225 223 144 162 191 144 114 154 168 173 178 172 139 143 151 150 80 8 1 353 350 351 348 346 344 343 343 339 334 331 328 326 322 318 313 308 302 296 289 281
212 213 207 212 204 96 155 168 135 131 150 157 166 170 172 174 176 176 180 187 241 314 333 337 338 336 338 341 341 335 334 331 328 326 326 324 323 320 316 311 306 300 291 283
191 191 203 213 202 173 173 172 166 164 161 160 164 168 177 184 186 190 199 215 244 284 314 324 325 328 333 335 332 328 327 325 323 323 323 322 322 322 320 314 306 301 296 291
191 184 203 216 193 180 194 191 178 168 165 165 171 178 184 189 197 204 212 225 247 273 297 309 318 324 324 326 328 328 327 324 321 320 321 321 322 319 316 313 307 300 294 291
201 201 205 219 197 196 190 180 177 176 179 180 181 185 190 197 204 212 223 232 248 271 291 302 310 313 317 321 322 324 324 321 319 320 321 320 318 316 314 312 309 293 278 279
Height
1510 1509 1509 1509 1509 1510 1510 1511 1513 1513 1512 1513 1512 1511 1511 1513 1515 1515 1517 1518 1520 1522 1524 1525 1526 1527 1528 1530 1532 1533 1534 1535 1535 1535 1535 1535 1535 1535 1534 1533 1531 1530 1529 1528
1509 1509 1507 1509 1511 1511 1510 1512 1512 1513 1513 1512 1511 1510 1510 1513 1515 1516 1517 1517 1519 1520 1522 1523 1523 1524 1526 1528 1530 1531 1532 1533 1534 1535 1535 1534 1534 1534 1533 1532 1530 1529 1528 1527
1504 1508 1509 1510 1511 1511 1511 1511 1513 1514 1513 1511 1511 1513 1511 1513 1515 1517 1518 1518 1518 1519 1520 1521 1521 1522 1524 1526 1527 1529 1531 1532 1533 1533 1534 1533 1533 1533 1533 1532 1530 1529 1528 1526
1506 1508 1510 1510 1511 1509 1514 1512 1513 1513 1512 1515 1512 1522 1514 1512 1513 1516 1517 1518 1519 1519 1519 1520 1520 1521 1522 1523 1525 1527 1529 1530 1532 1532 1533 1533 1533 1533 1533 1531 1530 1529 1527 1526
1507 1508 1509 1510 1511 1511 1512 1513 1512 1512 1510 1512 1512 1514 1517 1512 1515 1516 1518 1519 1519 1519 1519 1519 1519 1520 1520 1522 1523 1525 1527 1529 1530 1531 1532 1532 1532 1532 1531 1530 1529 1528 1527 1526
1507 1509 1508 1509 1511 1512 1513 1513 1513 1510 1508 1521 1519 1517 1524 1518 1519 1519 1519 1520 1520 1520 1519 1519 1519 1519 1519 1520 1522 1523 1525 1527 1528 1529 1530 1530 1531 1530 1530 1529 1529 1528 1527 1526
1509 1508 1510 1511 1511 1513 1512 1512 1519 1521 1522 1524 1519 1519 1526 1522 1522 1522 1522 1522 1521 1521 1520 1519 1519 1519 1519 1520 1521 1522 1523 1525 1526 1527 1528 1529 1529 1529 1529 1529 1528 1527 1527 1526
1509 1513 1508 1509 1507 1508 1509 1508 1517 1526 1527 1523 1519 1521 1523 1523 1524 1524 1524 1523 1522 1521 1520 1519 1519 1519 1519 1519 1520 1521 1522 1523 1524 1525 1526 1526 1527 1527 1527 1527 1526 1526 1525 1525
1502 1510 1508 1508 1508 1506 1508 1508 1507 1510 1516 1520 1520 1521 1521 1522 1523 1524 1524 1524 1523 1523 1521 1520 1519 1519 1519 1519 1520 1520 1521 1522 1522 1523 1524 1524 1525 1524 1525 1525 1524 1524 1524 1522
1496 1507 1508 1509 1509 1511 1507 1507 1509 1512 1524 1529 1527 1524 1524 1523 1525 1525 1525 1526 1526 1524 1523 1521 1520 1519 1519 1519 1519 1519 1520 1520 1520 1521 1521 1521 1522 1522 1522 1522 1522 1522 1522 1520
1497 1502 1509 1508 1507 1507 1511 1511 1510 1512 1514 1523 1531 1530 1524 1526 1527 1527 1528 1528 1527 1526 1524 1522 1521 1520 1519 1518 1518 1518 1518 1518 1518 1518 1519 1519 1519 1519 1519 1519 1519 1519 1519 1518
1499 1498 1505 1507 1508 1508 1506 1506 1508 1514 1519 1517 1521 1530 1526 1528 1529 1530 1530 1530 1529 1527 1526 1524 1522 1521 1519 1518 1518 1517 1517 1517 1517 1516 1516 1516 1516 1516 1516 1516 1516 1517 1517 1516
1500 1499 1508 1513 1514 1510 1509 1510 1509 1508 1511 1516 1522 1528 1526 1528 1530 1531 1531 1531 1530 1528 1527 1525 1523 1521 1520 1519 1518 1517 1516 1516 1515 1514 1514 1514 1514 1513 1513 1514 1514 1513 1513 1513
1501 1497 1503 1511 1506 1505 1509 1512 1512 1509 1513 1515 1515 1520 1524 1527 1529 1531 1532 1531 1530 1529 1528 1526 1524 1523 1521 1520 1519 1517 1516 1515 1514 1513 1512 1511 1511 1511 1510 1510 1510 1510 1510 1510
1499 1498 1500 1503 1505 1505 1507 1509 1511 1510 1507 1511 1511 1517 1521 1525 1529 1531 1532 1532 1531 1530 1528 1527 1525 1524 1522 1521 1519 1517 1516 1514 1513 1512 1510 1509 1509 1508 1507 1507 1506 1506 1505 1505
1499 1499 1502 1506 1507 1507 1508 1508 1509 1510 1510 1511 1514 1519 1521 1526 1529 1530 1531 1531 1530 1530 1529 1527 1526 1524 1522 1521 1519 1517 1515 1513 1512 1510 1509 1508 1506 1505 1504 1503 1502 1501 1501 1501
1499 1499 1503 1504 1508 1508 1509 1504 1507 1509 1509 1510 1513 1516 1522 1525 1528 1530 1531 1531 1530 1530 1529 1527 1526 1524 1522 1521 1519 1517 1514 1512 1511 1509 1507 1505 1504 1502 1501 1499 1498 1497 1496 1496
1500 1499 1501 1503 1510 1517 1504 1505 1506 1509 1510 1511 1513 1517 1521 1524 1528 1530 1530 1530 1530 1529 1528 1527 1526 1524 1522 1520 1518 1516 1514 1512 1509 1507 1505 1503 1501 1499 1497 1495 1494 1493 1492 1491
1503 1501 1502 1504 1506 1504 1506 1506 1507 1508 1510 1512 1514 1518 1521 1524 1526 1528 1529 1529 1529 1529 1528 1527 1525 1524 1522 1519 1517 1515 1513 1510 1508 1505 1503 1500 1498 1495 1493 1491 1489 1488 1487 1485
1506 1503 1501 1504 1507 1506 1498 1502 1506 1508 1509 1511 1513 1516 1519 1521 1520 1523 1527 1527 1527 1527 1526 1525 1524 1522 1520 1518 1516 1513 1511 1508 1505 1503 1500 1497 1495 1492 1489 1487 1485 1483 1481 1479
1502 1503 1502 1501 1501 1493 1498 1503 1506 1509 1503 1508 1511 1514 1517 1518 1519 1523 1524 1525 1525 1525 1524 1523 1522 1520 1518 1516 1514 1511 1509 1506 1503 1500 1497 1494 1491 1488 1485 1482 1480 1477 1475 1473
1492 1495 1497 1497 1500 1497 1500 1502 1501 1500 1504 1506 1510 1513 1516 1518 1520 1521 1522 1523 1523 1523 1522 1521 1519 1518 1516 1513 1511 1509 1506 1503 1500 1496 1493 1490 1487 1484 1481 1478 1475 1472 1470 1467
1491 1489 1488 1490 1493 1495 1498 1499 1501 1502 1504 1507 1509 1512 1514 1516 1518 1519 1520 1520 1520 1520 1519 1518 1516 1515 1513 1511 1508 1506 1503 1499 1496 1493 1490 1486 1483 1480 1476 1473 1470 1467 1464 1462
1490 1494 1493 1492 1493 1496 1498 1499 1501 1502 1504 1506 1508 1510 1512 1514 1515 1516 1517 1517 1517 1517 1516 1515 1513 1512 1510 1507 1505 1502 1499 1496 1493 1489 1486 1482 1479 1475 1472 1468 1465 1462 1459 1456
1486 1490 1489 1488 1491 1495 1496 1497 1499 1501 1503 1505 1506 1508 1510 1511 1512 1513 1514 1514 1514 1513 1513 1512 1510 1508 1506 1504 1501 1498 1495 1492 1489 1485 1482 1478 1474 1470 1466 1463 1460 1456 1453 1451
1484 1484 1484 1482 1485 1488 1491 1494 1496 1498 1500 1502 1504 1505 1507 1508 1509 1510 1510 1511 1510 1510 1509 1508 1507 1504 1502 1500 1497 1494 1491 1488 1485 1481 1478 1474 1470 1466 1461 1457 1453 1449 1446 1442